Regional Weather Roundup
Issued by NWS Midland/Odessa, TX

Skip options and go directly to product.
Home | Oldest Version | Previous Version | Current Version | All | Text Only | Save Text | Print | Product List | Glossary On

Skip product version selection by date and time.   
846
ASUS44 KMAF 030610
RWRMAF
MIDLAND AREA WEATHER ROUNDUP
NATIONAL WEATHER SERVICE MIDLAND TX
100 AM CDT FRI JUL 03 2015

...IN SOUTHWEST TEXAS AND SOUTHEAST NEW MEXICO...

CITY           SKY/WX    TMP DP  RH WIND       PRES   REMARKS
ALPINE         CLEAR     68  60  75 CALM      30.13S
ANDREWS        FAIR      74  63  69 S8        30.03S
ARTESIA        CLOUDY    79  59  50 NW6G12    30.06S
BIG SPRING     PTCLDY    79  65  61 S8        30.03R
CARLSBAD       CLOUDY    82  60  47 SE9       30.02R
DRYDEN           N/A     78  65  63 VRB5      29.94F
FORT STOCKTON  CLEAR     73  62  68 SE6       30.00S
GUAD PASS      CLOUDY    72  56  57 NE18      30.15R
HOBBS          MOCLDY    75  61  60 SE7       30.07R
MARFA          CLEAR    N/A N/A N/A W6        30.12F
MIDLAND AIRPK  MOCLDY    77  63  61 S8        30.02S
MIDLAND INTL   MOCLDY    75  64  68 SE9       30.01S
ODESSA         PTCLDY    76  62  62 S12       30.02S
PECOS          CLEAR     76  62  62 E10       29.98S
PRESIDIO       NOT AVBL
SEMINOLE       MOCLDY    74  62  65 S8        30.05R
SNYDER         PTCLDY    76  65  68 S6        30.03R
WINK           PTCLDY    77  63  61 SE9       29.99R
$$
...OTHER STATIONS IN TEXAS...

CITY           SKY/WX    TMP DP  RH WIND       PRES   REMARKS
ABILENE        CLEAR     78  66  66 S13       29.99R
AMARILLO       MOCLDY    67  60  78 E5        30.10R THUNDER
AUSTIN         CLEAR     74  74 100 S6        29.98S
BROWNSVILLE    CLEAR     75  72  90 S5        29.96F
CORPUS CHRISTI CLOUDY    81  78  91 S13       29.96R
DALLAS FTW     CLOUDY    84  69  60 S21       29.92S
DEL RIO        CLEAR     79  68  69 E10       29.91F
EL PASO        MOCLDY    87  46  24 E12       29.99R
HOUSTON INT    MOCLDY    76  74  93 CALM      30.00S
LUBBOCK        MOCLDY    73  63  70 SE8       30.04R
SAN ANGELO     CLEAR     76  68  76 S9        29.98S
SAN ANTONIO    MOCLDY    78  74  87 SE10      30.00R
WACO           CLEAR     79  72  79 S13       29.97F
WICHITA FALLS  NOT AVBL
$$
...OTHER LOCATIONS IN NEW MEXICO...

CITY           SKY/WX    TMP DP  RH WIND       PRES   REMARKS
ALAMAGORDO     CLOUDY    81  55  41 NW25G32   30.05R
ALBUQUERQUE    CLOUDY    72  59  63 N10       30.20R
CANNON AFB     CLOUDY    72  62  68 W7        30.10R
CLOVIS         CLOUDY    70  63  78 CALM        N/A
HOLLOMAN AFB   TSTM      73  62  67 N21G30    30.05R
ROSWELL        CLOUDY    77  61  57 N5        30.05S
RUIDOSO        LGT RAIN  57  57 100 W7        30.31F
SANTA FE       CLOUDY    63  57  81 CALM      30.26S
TRUTH OR CONSE CLOUDY    77  55  46 NE16      30.12R
TUCUMCARI      LGT RAIN  71  64  78 N29G45    30.09R
$$

USA.gov is the U.S. government's official web portal to all federal, state and local government web resources and services.